C/2017 K2 ( PanSTARRS )

Japanese version
Home page
Updated on April 13, 2018

---------------------------------------------------------------------

* Profile

Discovery Date May 21, 2017
Magnitude 20.8 mag
Discoverer Pan-STARRS 1 telescope (Haleakala)

* Pictures

* Orbital Elements

Epoch 2022 Dec. 7.0 TT = JDT 2459920.5
T 2022 Dec. 19.66670 TT                                 MPCW
q   1.7969679            (2000.0)            P               Q
z  -0.0004788      Peri.  236.19629     +0.01817040     +0.04924753
 +/-0.0000057      Node    88.23426     -0.18096354     +0.98245255
e   1.0008603      Incl.   87.56318     -0.98332194     -0.17989351
From 471 observations 2013 May 12-2018 Mar. 25, mean residual 0".5.

* Finding Charts

* Magnitudes Graph

        m1 = 1.0 + 5 log d + 10.0 log r

---------------------------------------------------------------------

The orbital elements are published on M.P.E.C. 2018-F152.
The charts are made with StellaNavigator Ver.10 (AstroArts).
The magnitudes graphs are made with Comet for Windows.

---------------------------------------------------------------------

Copyright(C) Seiichi Yoshida (comet@aerith.net). All rights reserved.